Temperature
-1 -1 -0 -1 -1 -1 -1 -1 -1 -1 -1 -1 -1 -1 -1 -1 -1 -1 -1 -2 -2 -2 -2 -2 -2 -2 -2 -2 -3 -3 -3 -3 -4 -3 -3 -3 -3 -3 -3 -3 -3 -2 -2
-1 -1 -1 -1 -1 -2 -2 -2 -2 -2 -2 -2 -2 -2 -2 -2 -2 -2 -2 -2 -2 -2 -2 -2 -3 -3 -3 -3 -3 -3 -3 -4 -4 -4 -4 -4 -4 -3 -3 -3 -3 -3 -3
-2 -2 -2 -2 -2 -2 -2 -2 -2 -2 -2 -2 -2 -2 -2 -2 -2 -2 -3 -3 -3 -3 -3 -3 -3 -3 -3 -3 -4 -4 -4 -4 -4 -5 -4 -4 -4 -4 -4 -4 -4 -4 -4
-3 -3 -3 -3 -3 -3 -3 -3 -3 -3 -3 -3 -3 -3 -3 -3 -3 -3 -3 -3 -3 -4 -4 -4 -4 -4 -4 -4 -4 -4 -5 -5 -5 -5 -5 -5 -5 -5 -5 -5 -4 -4 -4
-3 -3 -3 -3 -3 -3 -3 -3 -4 -4 -4 -4 -4 -4 -4 -4 -4 -4 -4 -4 -4 -4 -4 -4 -4 -4 -5 -5 -5 -5 -5 -5 -5 -5 -6 -6 -5 -5 -5 -5 -5 -5 -5
-4 -4 -4 -4 -4 -4 -4 -4 -4 -4 -4 -4 -4 -4 -4 -4 -4 -5 -5 -5 -5 -5 -5 -5 -5 -5 -5 -5 -5 -5 -5 -5 -6 -6 -6 -6 -6 -6 -6 -6 -6 -6 -6
-5 -5 -5 -5 -5 -5 -5 -5 -5 -5 -5 -5 -5 -5 -5 -5 -5 -5 -5 -5 -5 -5 -6 -5 -5 -6 -6 -6 -6 -6 -6 -6 -6 -6 -6 -6 -6 -6 -6 -6 -6 -6 -6
-6 -5 -5 -5 -5 -5 -5 -5 -5 -5 -5 -5 -5 -6 -6 -6 -6 -6 -6 -6 -6 -6 -6 -6 -6 -6 -6 -6 -6 -6 -6 -6 -6 -6 -7 -6 -6 -7 -7 -7 -7 -7 -7
-6 -6 -6 -6 -6 -6 -6 -6 -6 -6 -6 -6 -6 -6 -6 -6 -6 -6 -6 -6 -6 -6 -7 -7 -7 -6 -6 -7 -7 -7 -7 -7 -7 -7 -7 -7 -7 -7 -7 -7 -7 -7 -7
-7 -7 -6 -6 -6 -6 -6 -6 -6 -7 -7 -7 -7 -7 -7 -6 -6 -7 -7 -7 -7 -7 -7 -7 -7 -7 -7 -7 -7 -7 -7 -7 -7 -7 -7 -7 -7 -7 -7 -7 -7 -8 -8
-7 -7 -7 -7 -7 -7 -7 -7 -7 -7 -7 -7 -7 -7 -7 -7 -7 -7 -7 -7 -7 -7 -7 -7 -7 -7 -7 -8 -8 -8 -8 -8 -8 -7 -7 -8 -8 -8 -8 -8 -8 -8 -8
-8 -8 -8 -8 -8 -8 -8 -8 -8 -8 -8 -8 -8 -8 -8 -8 -8 -8 -8 -8 -8 -8 -8 -8 -8 -8 -8 -8 -8 -8 -8 -8 -8 -8 -8 -8 -8 -8 -8 -8 -8 -8 -9
-8 -8 -8 -8 -8 -8 -8 -8 -8 -8 -9 -9 -9 -9 -8 -8 -8 -8 -8 -8 -8 -8 -8 -8 -8 -8 -8 -8 -8 -8 -8 -8 -8 -8 -8 -8 -8 -9 -9 -9 -9 -9 -9
-9 -9 -9 -9 -9 -9 -9 -9 -9 -9 -9 -9 -9 -9 -9 -9 -9 -9 -9 -9 -9 -9 -9 -9 -9 -9 -9 -9 -9 -9 -9 -9 -9 -9 -9 -9 -9 -9 -9 -9 -9 -9 -10
-10 -10 -10 -10 -10 -10 -10 -9 -9 -9 -9 -9 -9 -9 -9 -9 -9 -9 -9 -9 -9 -9 -9 -9 -9 -9 -9 -9 -9 -9 -9 -9 -9 -9 -9 -9 -9 -9 -10 -10 -10 -10 -10
-11 -10 -10 -10 -10 -10 -10 -10 -10 -10 -10 -10 -10 -10 -10 -10 -10 -9 -9 -9 -9 -9 -10 -9 -9 -9 -9 -9 -9 -9 -9 -9 -10 -10 -10 -10 -10 -10 -10 -10 -10 -10 -11
-11 -11 -11 -11 -11 -11 -11 -11 -11 -10 -10 -10 -10 -10 -10 -10 -10 -10 -10 -10 -10 -10 -10 -10 -10 -10 -10 -10 -10 -10 -10 -10 -10 -10 -10 -10 -10 -10 -11 -11 -11 -11 -11
-12 -11 -11 -11 -11 -11 -11 -11 -11 -11 -11 -11 -10 -11 -11 -11 -10 -10 -10 -10 -10 -10 -10 -10 -10 -10 -10 -10 -10 -10 -10 -10 -10 -11 -11 -11 -11 -11 -11 -11 -11 -11 -11
-12 -12 -12 -12 -12 -12 -12 -12 -12 -12 -12 -11 -11 -11 -11 -11 -11 -11 -11 -11 -11 -11 -11 -11 -11 -11 -11 -11 -11 -11 -11 -11 -11 -11 -11 -11 -11 -11 -11 -11 -12 -12 -12
-13 -12 -12 -12 -12 -12 -12 -12 -12 -12 -12 -12 -12 -11 -11 -11 -11 -11 -11 -11 -11 -11 -11 -11 -11 -11 -11 -11 -11 -11 -11 -11 -11 -11 -11 -12 -12 -12 -12 -12 -12 -12 -12
-13 -13 -13 -13 -12 -12 -12 -12 -12 -12 -12 -12 -12 -12 -12 -12 -12 -11 -12 -12 -12 -12 -12 -12 -12 -12 -12 -12 -12 -12 -12 -12 -12 -12 -12 -12 -12 -12 -12 -12 -12 -12 -12
-14 -13 -13 -13 -13 -13 -13 -13 -13 -13 -13 -12 -12 -12 -12 -12 -12 -12 -12 -12 -12 -12 -12 -12 -12 -12 -12 -12 -12 -12 -12 -12 -12 -12 -12 -12 -12 -12 -12 -12 -13 -13 -13
-14 -14 -14 -14 -13 -13 -13 -13 -13 -13 -13 -13 -13 -13 -13 -12 -12 -12 -12 -12 -12 -12 -12 -12 -12 -12 -12 -12 -12 -12 -12 -12 -12 -12 -12 -13 -13 -13 -13 -13 -13 -13 -13
-14 -14 -14 -14 -14 -14 -13 -13 -13 -13 -13 -13 -13 -13 -13 -13 -13 -13 -13 -13 -13 -12 -12 -12 -12 -12 -12 -12 -12 -12 -12 -13 -13 -13 -13 -13 -13 -13 -13 -13 -13 -13 -13
-15 -15 -14 -14 -14 -14 -14 -14 -14 -14 -14 -13 -13 -13 -13 -13 -13 -13 -13 -13 -13 -13 -13 -13 -13 -13 -13 -13 -13 -13 -13 -13 -13 -13 -13 -13 -13 -13 -13 -13 -13 -14 -14
-15 -15 -15 -15 -15 -14 -14 -14 -14 -14 -14 -14 -14 -14 -14 -14 -14 -14 -13 -13 -13 -13 -13 -13 -13 -13 -13 -13 -13 -13 -13 -13 -13 -13 -14 -14 -14 -14 -14 -14 -14 -14 -14
Wind_Speed
4 4 4 4 4 4 4 5 5 4 4 5 5 4 4 4 4 4 4 4 4 3 3 3 3 3 3 2 2 3 3 3 5 5 3 3 4 5 8 9 8 8 9
3 3 4 3 4 4 4 4 4 4 4 5 4 5 5 4 4 4 4 4 5 5 4 4 5 4 4 3 3 4 3 3 4 6 5 4 5 5 5 6 7 7 8
3 3 3 3 3 4 4 3 3 4 3 4 4 5 5 4 4 4 5 5 5 5 5 5 5 5 5 4 4 4 4 4 3 5 6 4 4 4 4 4 5 5 8
3 3 3 3 3 3 3 3 3 3 4 4 4 4 4 4 4 5 5 5 5 5 5 6 6 6 6 6 5 5 4 4 4 5 5 5 4 4 3 3 4 3 5
2 3 3 2 2 2 2 3 3 3 3 4 3 3 4 4 5 5 5 5 5 5 5 6 6 7 9 7 6 5 5 5 4 5 5 5 5 4 3 3 4 4 5
2 2 2 2 2 2 2 2 2 3 3 3 4 4 4 4 7 8 7 5 5 5 5 5 6 7 9 10 10 10 9 7 6 6 6 6 6 5 4 4 4 4 5
1 1 1 2 2 2 2 2 3 3 3 3 4 4 5 6 8 8 9 4 5 5 5 5 5 5 7 5 8 9 9 11 10 7 7 7 6 5 5 5 5 5 6
0 1 1 1 2 2 2 2 3 2 3 3 4 4 4 6 8 8 8 4 4 5 5 6 6 5 6 6 5 5 5 6 8 7 7 7 7 5 5 5 5 5 5
1 1 1 2 2 2 3 3 3 2 3 3 3 3 4 5 7 7 6 3 3 4 5 5 5 5 9 9 5 5 5 6 8 10 10 9 10 10 7 3 3 3 5
3 3 2 2 3 3 4 3 3 3 3 3 3 3 4 4 7 7 6 3 4 4 4 5 7 7 9 9 5 5 6 5 4 4 5 7 6 7 8 5 4 4 4
3 3 2 2 3 3 3 3 3 3 2 2 3 3 4 5 6 7 6 3 4 4 4 4 5 9 9 9 7 5 7 6 4 4 4 3 3 3 4 4 4 4 5
3 3 3 3 3 2 2 3 3 3 3 3 3 3 3 4 5 6 6 6 5 4 4 4 4 7 7 7 6 6 7 5 2 2 2 3 3 3 3 4 5 6 6
3 3 3 3 2 2 3 3 3 3 3 3 3 3 3 3 4 6 7 7 6 4 4 5 6 6 6 4 5 6 4 2 1 2 3 3 3 3 2 3 3 4 5
3 3 3 2 2 2 3 3 3 4 4 4 4 4 4 4 4 4 4 4 5 4 3 4 5 5 4 4 4 3 2 2 3 3 3 2 1 2 2 2 3 3 3
3 3 3 3 3 3 3 3 4 5 6 5 5 4 4 5 6 7 4 3 3 3 2 1 1 1 2 2 2 2 2 2 2 2 2 2 2 2 3 2 3 3 3
4 3 3 2 2 2 3 3 5 5 7 8 7 6 6 7 7 7 6 6 6 5 3 3 3 3 3 3 3 2 2 3 3 2 2 2 2 3 3 3 3 3 4
4 4 3 3 3 3 3 3 3 4 6 7 7 8 7 7 7 7 6 6 6 5 3 2 3 3 4 4 3 3 3 3 3 3 3 3 3 3 3 3 3 3 4
4 5 4 3 3 3 4 3 3 4 4 4 6 8 8 7 7 6 6 4 4 3 3 3 3 3 3 3 3 3 3 3 2 3 3 3 3 3 3 4 4 4 4
4 3 3 3 3 3 3 3 4 4 4 4 3 5 6 7 7 6 5 3 3 3 3 3 4 4 4 4 4 4 4 3 3 3 3 4 4 4 4 4 4 7 6
4 6 5 3 3 3 3 3 4 4 4 4 4 4 4 4 4 4 4 3 3 4 4 4 4 4 4 4 4 4 4 4 4 4 4 4 4 4 5 5 5 5 5
4 5 6 4 3 3 3 4 4 4 4 4 4 6 6 4 4 4 4 4 4 4 5 5 4 4 4 4 4 5 5 5 4 4 4 5 4 4 5 5 5 5 5
4 4 4 4 4 4 4 3 3 4 4 5 4 5 7 4 3 4 4 4 5 5 5 5 5 5 5 5 5 5 5 6 5 5 5 5 5 5 5 5 5 5 5
3 4 4 4 4 5 5 3 3 4 4 4 4 4 4 4 4 4 4 4 4 4 5 5 5 5 6 7 7 7 7 7 6 6 6 6 6 5 5 6 6 6 6
3 3 4 4 4 4 4 4 4 4 4 4 4 4 4 4 4 4 4 3 4 5 5 6 6 7 8 8 8 9 10 10 9 9 9 8 7 6 6 6 6 7 7
3 3 3 4 4 4 4 4 3 3 3 3 3 3 3 3 3 3 3 3 4 4 6 6 7 7 9 10 10 10 12 13 13 11 10 8 7 7 6 6 6 6 6
3 3 3 3 3 3 3 4 3 3 3 3 3 3 3 3 3 3 3 3 4 4 5 6 7 9 10 10 11 12 13 14 14 14 10 7 7 7 6 6 7 6 6
Wind_Direction
182 179 178 183 185 182 186 189 189 190 188 189 196 195 194 197 196 188 196 196 200 212 220 217 227 226 226 229 226 230 232 226 255 278 275 276 278 282 294 294 292 293 296
181 169 175 176 176 184 195 193 189 189 196 197 198 197 201 202 203 196 204 208 207 215 221 224 235 239 236 233 230 232 237 233 241 267 280 276 270 269 275 282 290 291 291
169 166 166 166 174 190 196 189 186 186 191 197 199 199 203 204 206 209 206 212 217 221 221 224 231 229 238 236 231 236 241 248 238 249 271 274 272 272 276 286 287 288 293
165 167 176 181 183 185 184 184 186 185 185 194 204 206 209 214 217 219 216 217 219 228 232 230 231 229 233 232 237 234 235 242 239 245 263 273 275 271 260 276 293 291 294
165 175 189 189 183 178 181 182 186 193 198 203 202 210 219 221 222 218 216 218 216 224 232 236 238 239 240 238 240 233 227 232 238 244 255 268 271 269 263 267 279 292 291
177 190 188 178 186 198 202 191 186 194 200 200 208 211 217 231 237 233 227 218 216 220 229 237 243 248 250 253 253 251 243 235 234 240 253 252 260 257 259 261 267 281 287
185 187 183 184 201 212 215 202 201 204 203 211 216 215 221 232 240 238 236 217 207 216 223 231 243 250 257 249 255 258 258 257 251 247 246 249 252 247 246 255 259 266 270
246 228 216 203 217 221 213 218 220 212 210 217 226 229 234 243 244 242 240 215 213 222 228 228 234 241 248 248 248 250 254 259 257 252 246 246 246 242 237 243 253 269 274
316 284 262 232 224 223 229 232 226 220 221 222 228 228 235 251 252 244 237 207 221 229 235 233 233 235 249 254 249 242 257 265 267 261 256 251 255 256 249 242 249 261 275
300 284 267 246 229 229 233 233 230 225 227 238 249 240 240 247 252 242 236 220 227 233 238 240 244 246 252 253 236 227 245 259 261 265 266 266 261 257 260 245 238 247 267
302 300 287 262 246 234 227 228 225 228 229 229 243 252 246 251 254 245 239 225 222 227 237 241 245 253 258 258 252 234 246 253 245 247 252 256 253 247 253 248 240 241 253
307 303 292 274 261 250 221 225 220 213 217 226 233 249 253 255 259 251 244 243 239 228 236 241 246 255 262 266 261 254 260 265 244 233 239 247 251 256 258 257 255 255 255
309 299 291 286 275 260 228 218 217 213 218 228 231 241 253 259 259 258 254 250 248 243 239 245 253 258 265 268 269 270 267 255 233 240 245 252 251 250 253 267 272 272 275
305 299 291 281 276 264 251 230 223 224 224 228 232 237 249 252 249 245 247 252 250 253 250 247 251 257 261 268 270 274 264 239 232 237 243 251 258 251 253 262 274 286 289
300 296 294 283 268 265 260 242 239 231 226 227 228 228 230 239 245 244 239 239 236 235 223 210 225 242 242 251 267 275 260 253 253 240 241 248 255 261 268 266 263 268 269
298 299 290 282 275 274 275 279 265 257 254 252 251 249 249 253 258 251 250 251 249 240 220 212 223 225 232 239 248 260 265 253 245 244 241 239 248 256 266 273 271 264 266
281 284 283 280 273 271 268 266 277 279 267 263 262 262 259 261 258 252 249 243 240 232 218 215 225 227 232 235 237 239 247 255 250 236 239 239 243 251 257 264 268 269 271
288 283 282 272 264 260 260 259 258 263 270 271 271 268 264 263 260 257 249 240 235 231 223 224 229 234 235 234 236 241 247 251 249 244 241 238 237 242 249 256 257 260 269
296 287 278 271 266 260 260 258 256 258 260 269 279 276 270 267 259 253 246 231 228 233 234 235 233 232 236 237 237 238 241 243 244 243 243 240 238 238 247 252 257 267 272
298 300 303 284 272 268 263 259 258 256 256 258 261 267 271 269 259 256 250 239 231 234 235 237 238 236 235 234 235 236 240 242 242 244 245 246 243 239 245 250 254 259 263
300 302 310 307 291 281 271 262 258 256 255 258 261 263 262 251 249 249 250 249 239 235 234 237 238 236 233 230 230 233 235 240 240 241 245 247 246 245 247 250 254 257 262
299 301 301 294 292 287 278 264 256 255 256 260 267 270 271 266 252 248 247 249 244 236 232 230 233 233 230 228 227 231 236 239 238 237 242 245 246 248 248 250 254 256 258
298 300 300 298 297 296 302 286 270 263 261 260 263 266 268 264 258 253 254 252 244 244 243 238 235 240 246 242 236 231 230 235 235 233 236 242 245 245 246 248 249 253 255
298 297 298 300 301 298 292 288 283 275 268 265 263 262 260 258 259 260 259 253 253 252 249 245 243 243 246 249 247 243 242 244 241 237 233 235 241 244 244 245 248 249 253
304 302 301 298 297 295 295 292 291 292 289 283 279 276 274 271 268 267 262 261 260 259 260 259 253 249 249 251 253 252 252 255 253 245 235 232 235 237 239 242 246 250 253
311 303 300 298 297 296 295 294 292 292 291 293 293 288 280 274 273 272 266 263 265 268 270 269 262 259 259 257 256 257 259 260 258 256 244 230 228 233 236 241 241 244 250
Height
1461 1462 1464 1466 1468 1470 1471 1473 1475 1477 1478 1479 1480 1481 1483 1484 1485 1486 1488 1489 1489 1491 1492 1492 1493 1494 1494 1494 1495 1495 1495 1495 1493 1491 1492 1492 1491 1491 1490 1490 1489 1488 1488
1457 1458 1460 1462 1463 1465 1467 1469 1470 1472 1474 1475 1476 1477 1478 1479 1480 1482 1483 1484 1485 1486 1486 1487 1488 1488 1489 1490 1490 1490 1490 1490 1489 1487 1486 1487 1487 1486 1485 1484 1484 1483 1483
1454 1455 1456 1457 1459 1461 1463 1464 1466 1468 1469 1470 1471 1472 1473 1474 1475 1477 1478 1479 1480 1481 1481 1482 1482 1483 1483 1484 1484 1485 1485 1485 1484 1483 1481 1482 1481 1481 1480 1479 1479 1478 1477
1450 1451 1452 1453 1455 1456 1458 1460 1462 1463 1464 1466 1467 1468 1469 1469 1471 1472 1473 1474 1475 1475 1476 1477 1477 1478 1478 1479 1479 1479 1479 1479 1479 1478 1477 1477 1476 1475 1475 1474 1473 1472 1472
1447 1448 1448 1450 1451 1452 1454 1455 1457 1459 1460 1461 1462 1463 1464 1465 1466 1467 1468 1469 1470 1470 1471 1472 1472 1472 1473 1473 1474 1474 1474 1474 1474 1473 1472 1472 1471 1470 1470 1469 1468 1467 1466
1444 1445 1445 1446 1447 1449 1450 1451 1453 1454 1455 1456 1457 1458 1459 1460 1461 1462 1464 1464 1465 1465 1466 1466 1467 1467 1467 1468 1468 1469 1470 1469 1469 1468 1467 1467 1466 1466 1465 1465 1463 1462 1460
1442 1442 1442 1443 1444 1445 1446 1447 1448 1449 1450 1451 1452 1453 1454 1455 1456 1458 1459 1460 1460 1460 1461 1461 1461 1462 1462 1462 1462 1463 1463 1463 1464 1464 1463 1462 1461 1461 1461 1460 1459 1457 1456
1439 1439 1440 1440 1441 1442 1442 1443 1444 1445 1446 1447 1447 1448 1449 1450 1452 1453 1454 1455 1455 1455 1456 1456 1456 1456 1457 1457 1457 1457 1457 1457 1458 1458 1457 1457 1457 1457 1456 1455 1454 1453 1452
1437 1437 1437 1437 1437 1438 1439 1439 1440 1441 1442 1442 1443 1444 1445 1446 1447 1448 1449 1450 1450 1450 1451 1451 1451 1451 1452 1453 1453 1452 1452 1452 1452 1452 1452 1452 1452 1452 1451 1451 1449 1448 1446
1435 1435 1435 1435 1434 1435 1435 1436 1436 1437 1438 1439 1439 1440 1441 1441 1443 1444 1445 1445 1445 1446 1446 1446 1447 1447 1447 1448 1448 1447 1447 1447 1447 1446 1446 1446 1446 1446 1446 1446 1445 1444 1442
1433 1432 1432 1431 1431 1431 1432 1432 1433 1433 1434 1435 1435 1436 1437 1437 1438 1439 1440 1440 1441 1441 1441 1441 1442 1442 1443 1443 1443 1443 1442 1443 1442 1442 1441 1441 1441 1441 1441 1441 1440 1440 1438
1430 1429 1428 1428 1428 1428 1428 1429 1429 1430 1430 1431 1431 1432 1432 1433 1434 1434 1435 1436 1437 1437 1437 1437 1437 1438 1438 1438 1438 1438 1438 1438 1437 1437 1436 1436 1436 1436 1436 1436 1435 1435 1434
1426 1425 1425 1425 1425 1425 1425 1425 1425 1426 1426 1427 1427 1427 1428 1429 1429 1430 1431 1432 1432 1432 1432 1433 1433 1433 1433 1433 1433 1433 1433 1433 1432 1432 1431 1431 1432 1432 1431 1430 1430 1429 1428
1423 1423 1422 1421 1421 1421 1421 1421 1421 1422 1422 1422 1423 1423 1424 1424 1425 1426 1427 1427 1428 1428 1428 1428 1428 1428 1428 1428 1428 1428 1428 1428 1428 1427 1427 1427 1427 1427 1426 1426 1425 1424 1422
1421 1420 1419 1418 1418 1418 1418 1418 1418 1418 1419 1419 1419 1419 1420 1420 1421 1422 1423 1423 1423 1424 1424 1423 1423 1423 1423 1423 1423 1423 1424 1424 1423 1423 1423 1422 1422 1422 1422 1421 1421 1419 1418
1418 1417 1416 1415 1415 1414 1414 1414 1414 1415 1415 1416 1416 1416 1416 1417 1417 1418 1418 1419 1419 1419 1419 1418 1418 1418 1418 1418 1419 1419 1419 1419 1419 1419 1418 1418 1418 1418 1417 1417 1416 1415 1413
1415 1414 1413 1412 1412 1411 1411 1410 1410 1411 1411 1412 1412 1412 1412 1413 1413 1414 1414 1414 1415 1415 1414 1413 1413 1414 1414 1414 1414 1414 1415 1415 1414 1414 1414 1414 1413 1413 1412 1412 1411 1410 1409
1412 1411 1410 1409 1409 1408 1408 1407 1407 1406 1406 1406 1407 1407 1408 1408 1409 1409 1410 1410 1409 1410 1409 1409 1409 1410 1410 1410 1410 1410 1410 1410 1410 1410 1409 1409 1409 1408 1408 1407 1406 1405 1404
1410 1408 1407 1406 1406 1405 1405 1404 1404 1403 1403 1402 1402 1403 1404 1404 1405 1405 1405 1405 1404 1404 1404 1405 1405 1405 1405 1405 1406 1406 1406 1406 1405 1405 1405 1405 1404 1404 1403 1402 1401 1400 1399
1407 1406 1404 1403 1402 1402 1401 1401 1400 1399 1399 1399 1398 1399 1399 1399 1399 1399 1400 1400 1399 1399 1400 1400 1400 1401 1401 1401 1401 1401 1401 1401 1400 1400 1400 1400 1399 1399 1398 1397 1396 1395 1394
1404 1402 1401 1400 1399 1399 1398 1397 1397 1396 1395 1395 1395 1395 1395 1395 1395 1395 1395 1395 1395 1394 1395 1395 1395 1396 1396 1396 1396 1396 1396 1395 1395 1395 1395 1395 1394 1394 1393 1392 1391 1390 1389
1401 1400 1399 1397 1396 1396 1395 1394 1393 1392 1392 1391 1391 1391 1391 1391 1390 1390 1390 1390 1390 1390 1390 1390 1390 1391 1391 1391 1391 1390 1390 1390 1390 1390 1390 1389 1389 1388 1388 1387 1386 1385 1384
1399 1398 1396 1395 1394 1393 1392 1391 1390 1389 1388 1388 1387 1387 1387 1386 1386 1386 1385 1385 1385 1385 1385 1385 1385 1385 1386 1386 1386 1385 1385 1385 1385 1384 1384 1384 1383 1383 1382 1381 1380 1379 1378
1397 1395 1393 1392 1391 1390 1389 1387 1386 1386 1385 1384 1384 1383 1383 1382 1382 1381 1381 1381 1380 1380 1380 1380 1380 1380 1380 1380 1380 1380 1379 1379 1379 1379 1379 1378 1378 1377 1377 1376 1375 1374 1373
1394 1392 1391 1390 1388 1387 1385 1384 1383 1382 1381 1381 1380 1379 1379 1378 1378 1377 1376 1376 1376 1375 1375 1375 1375 1375 1375 1374 1374 1374 1374 1374 1374 1373 1373 1373 1372 1372 1371 1370 1370 1369 1368
1391 1390 1388 1387 1385 1384 1382 1381 1380 1379 1378 1377 1376 1376 1375 1374 1373 1373 1372 1372 1371 1371 1370 1370 1370 1370 1369 1369 1369 1368 1368 1368 1368 1368 1368 1367 1367 1366 1366 1365 1364 1364 1362